Terminal Aerodrome Forecast
Issued by NWS

Home | Current Version | Previous Version | Text Only | Print | Product List | Glossary On
Versions: 1 2 3 4 5 6 7 8 9 10 11 12 13 14 15 16 17 18 19 20 21 22 23 24 25 26 27 28 29 30 31 32 33 34 35 36 37 38 39 40 41 42 43 44 45 46 47 48 49 50
000
FTUS41 KCTP 201445 AAA
TAFJST
TAF AMD
KJST 201445Z 2015/2112 16010KT 5SM -RA BR BKN030 OVC050
     FM201600 16010KT 2SM -RA BR BKN012 OVC025
     FM201700 16008KT 1SM -DZ BR OVC004
     FM202000 20008KT P6SM SCT007 OVC015
     FM210200 24007KT 4SM BR BKN004 OVC009=

USA.gov is the U.S. government's official web portal to all federal, state and local government web resources and services.